Weather History for Norfolk, NE

Change the Weather History Date:

Monday, February 27, 2012

  Actual Average Record
Temperature  
Mean Temperature 28 °F 31 °F  
Max Temperature 40 °F 41 °F 68 °F (2006)
Min Temperature 15 °F 20 °F -18 °F (1899)
Degree Days  
Heating Degree Days 37 34  
Month to date heating degree days 973 1035  
Since 1 July heating degree days 4552 5057  
Cooling Degree Days 0 0  
Month to date cooling degree days 0 0  
Year to date cooling degree days 0 0  
Moisture  
Dew Point 13 °F    
Average Humidity 59    
Maximum Humidity 80    
Minimum Humidity 37    
Precipitation  
Precipitation 0.00 in 0.03 in 0.63 in (1907)
Month to date precipitation 1.05 0.73  
Year to date precipitation 1.23 1.32  
Snow  
Snow 0.00 in 0.10 in - ()
Month to date snowfall 5.1 5.3  
Since 1 July snowfall 15.3 22.6  
Snow Depth 0.00 in    
Sea Level Pressure  
Sea Level Pressure 30.40 in    
Wind  
Wind Speed 11 mph (South)    
Max Wind Speed 24 mph    
Max Gust Speed 36 mph    
Visibility 10 miles    
Events      
T = Trace of Precipitation, MM = Missing Value Source: NWS Daily Summary

Daily Weather History Graph

Daily Weather History Graph

Search for Another Location

Airport:

Trip Planner

Search our weather history database for the weather conditions in past years. The results will help you decide how hot, cold, wet, or windy it might be!

Date:

Astronomy

Feb. 27, 2012 Rise Set
Actual Time 7:08 AM CST 6:16 PM CST
Civil Twilight 6:40 AM CST 6:45 PM CST
Nautical Twilight 6:08 AM CST 7:17 PM CST
Astronomical Twilight 5:35 AM CST 7:49 PM CST
Moon 9:32 AM CST (2/27) No Moon Set
Length of Visible Light 12h 04m
Length of Day
11h 08m
Waxing Crescent, 29% of the Moon is Illuminated
Feb 27
Waxing Crescent
Feb 29
First Quarter
Mar 8
Full
Mar 14
Last Quarter
Mar 22
New

Hourly Weather History & Observations

Time (CST) Temp. Windchill Dew Point Humidity Pressure Visibility Wind Dir Wind Speed Gust Speed Precip Events Conditions
12:56 AM 21.9 °F 8.2 °F 10.0 °F 60% 30.37 in 10.0 mi WNW 16.1 mph - N/A   Clear
1:56 AM 19.9 °F 6.2 °F 10.0 °F 65% 30.40 in 10.0 mi NW 15.0 mph - N/A   Clear
2:56 AM 19.9 °F 5.7 °F 10.0 °F 65% 30.40 in 10.0 mi NW 16.1 mph 21.9 mph N/A   Clear
3:56 AM 18.0 °F 4.2 °F 10.0 °F 71% 30.42 in 10.0 mi NW 13.8 mph - N/A   Clear
4:56 AM 17.1 °F 4.3 °F 9.0 °F 71% 30.44 in 10.0 mi NW 11.5 mph - N/A   Clear
5:56 AM 16.0 °F 4.4 °F 10.0 °F 77% 30.45 in 10.0 mi NW 9.2 mph - N/A   Clear
6:56 AM 16.0 °F 6.3 °F 9.0 °F 74% 30.48 in 10.0 mi WNW 6.9 mph - N/A   Clear
7:56 AM 17.1 °F 6.6 °F 10.0 °F 74% 30.51 in 10.0 mi NW 8.1 mph - N/A   Clear
8:56 AM 19.9 °F 11.1 °F 10.0 °F 65% 30.53 in 10.0 mi WNW 6.9 mph - N/A   Clear
10:56 AM 25.0 °F - 10.0 °F 53% 30.54 in 10.0 mi Calm Calm - N/A   Clear
11:56 AM 28.0 °F 22.8 °F 12.0 °F 51% 30.54 in 10.0 mi Variable 4.6 mph - N/A   Clear
12:56 PM 30.9 °F - 12.9 °F 47% 30.48 in 10.0 mi Calm Calm - N/A   Clear
1:56 PM 34.0 °F 29.8 °F 12.9 °F 42% 30.43 in 10.0 mi ESE 4.6 mph - N/A   Clear
2:56 PM 36.0 °F 29.6 °F 12.9 °F 39% 30.41 in 10.0 mi ESE 8.1 mph - N/A   Clear
3:56 PM 37.9 °F 28.5 °F 14.0 °F 38% 30.39 in 10.0 mi SE 17.3 mph - N/A   Clear
4:56 PM 37.0 °F 28.5 °F 15.1 °F 41% 30.35 in 10.0 mi SE 13.8 mph - N/A   Partly Cloudy
5:56 PM 35.1 °F 25.9 °F 17.1 °F 48% 30.35 in 10.0 mi SE 13.8 mph - N/A   Overcast
6:56 PM 34.0 °F 23.8 °F 18.0 °F 52% 30.32 in 10.0 mi SE 16.1 mph 23.0 mph N/A   Overcast
7:56 PM 34.0 °F 25.0 °F 18.0 °F 52% 30.31 in 10.0 mi SE 12.7 mph - N/A   Overcast
8:56 PM 34.0 °F 23.4 °F 18.0 °F 52% 30.28 in 10.0 mi SE 17.3 mph 23.0 mph N/A   Overcast
9:56 PM 34.0 °F 24.6 °F 19.0 °F 54% 30.28 in 10.0 mi SSE 13.8 mph 23.0 mph N/A   Overcast
10:56 PM 34.0 °F 23.8 °F 19.9 °F 56% 30.26 in 10.0 mi SSE 16.1 mph 23.0 mph N/A   Overcast
11:56 PM 35.1 °F 26.4 °F 19.9 °F 54% 30.25 in 10.0 mi South 12.7 mph - N/A   Overcast